TimeCST,TemperatureF,Dew PointF,Humidity,Sea Level PressureIn,VisibilityMPH,Wind Direction,Wind SpeedMPH,Gust SpeedMPH,PrecipitationIn,Events,Conditions,WindDirDegrees,DateUTC
12:53 AM,45.0,44.1,97,30.09,9.0,Calm,Calm,-,N/A,,Clear,0,2012-11-26 06:53:00
1:53 AM,45.0,44.1,97,30.08,4.0,Calm,Calm,-,N/A,,Clear,0,2012-11-26 07:53:00
2:53 AM,46.0,45.0,96,30.08,6.0,Calm,Calm,-,N/A,,Clear,0,2012-11-26 08:53:00
3:53 AM,48.0,46.9,96,30.07,5.0,Calm,Calm,-,N/A,,Overcast,0,2012-11-26 09:53:00
4:53 AM,51.1,48.9,92,30.08,8.0,Calm,Calm,-,N/A,,Mostly Cloudy,0,2012-11-26 10:53:00
5:53 AM,52.0,50.0,93,30.09,9.0,Calm,Calm,-,0.00,,Overcast,0,2012-11-26 11:53:00
6:53 AM,53.1,52.0,96,30.10,7.0,South,3.5,-,0.01,,Overcast,180,2012-11-26 12:53:00
7:53 AM,55.9,54.0,93,30.10,10.0,SSE,6.9,-,0.00,,Unknown,150,2012-11-26 13:53:00
8:53 AM,57.0,55.0,93,30.12,10.0,SSE,4.6,-,N/A,,Overcast,150,2012-11-26 14:53:00
9:53 AM,63.0,57.9,84,30.12,10.0,South,9.2,-,N/A,,Overcast,170,2012-11-26 15:53:00
10:41 AM,66.2,60.8,83,30.12,10.0,South,13.8,19.6,N/A,,Overcast,180,2012-11-26 16:41:00
10:53 AM,64.9,60.1,84,30.11,10.0,South,12.7,20.7,N/A,,Overcast,180,2012-11-26 16:53:00
11:26 AM,66.2,60.8,83,30.10,10.0,South,10.4,-,N/A,,Unknown,190,2012-11-26 17:26:00
11:53 AM,66.0,62.1,87,30.08,10.0,South,11.5,20.7,N/A,,Unknown,170,2012-11-26 17:53:00
12:18 PM,64.4,62.6,94,30.08,5.0,South,11.5,-,0.02,Rain,Rain,170,2012-11-26 18:18:00
12:53 PM,64.0,63.0,96,30.07,3.0,South,9.2,-,0.09,Rain,Light Rain,170,2012-11-26 18:53:00
12:58 PM,64.4,62.6,94,30.07,2.0,South,11.5,-,0.04,Rain,Heavy Rain,170,2012-11-26 18:58:00
1:04 PM,64.4,64.4,100,30.06,1.8,SSE,10.4,-,0.06,Rain,Light Rain,160,2012-11-26 19:04:00
1:07 PM,64.4,64.4,100,30.06,3.0,SSE,11.5,-,0.06,Rain,Light Rain,160,2012-11-26 19:07:00
1:53 PM,66.0,64.9,96,30.05,10.0,SSE,9.2,-,0.06,,Overcast,150,2012-11-26 19:53:00
2:16 PM,66.2,64.4,94,30.05,10.0,SSE,9.2,-,N/A,,Overcast,160,2012-11-26 20:16:00
2:53 PM,66.0,64.0,93,30.04,10.0,South,10.4,-,N/A,,Overcast,170,2012-11-26 20:53:00
3:53 PM,64.9,64.0,97,30.05,10.0,SSE,4.6,-,0.00,,Overcast,160,2012-11-26 21:53:00
4:00 PM,64.4,64.4,100,30.06,10.0,SSE,8.1,-,N/A,,Overcast,160,2012-11-26 22:00:00
4:23 PM,64.4,62.6,94,30.05,10.0,SSE,8.1,-,N/A,,Mostly Cloudy,150,2012-11-26 22:23:00
4:35 PM,64.4,62.6,94,30.06,10.0,SSE,9.2,-,N/A,,Scattered Clouds,160,2012-11-26 22:35:00
4:42 PM,64.4,62.6,94,30.06,10.0,SSE,8.1,-,N/A,,Mostly Cloudy,150,2012-11-26 22:42:00
4:53 PM,64.9,63.0,93,30.07,10.0,South,5.8,-,N/A,,Mostly Cloudy,180,2012-11-26 22:53:00
5:53 PM,63.0,62.1,97,30.08,10.0,South,6.9,-,N/A,,Scattered Clouds,170,2012-11-26 23:53:00
6:53 PM,63.0,62.1,97,30.09,10.0,SSE,5.8,-,N/A,,Overcast,160,2012-11-27 00:53:00
7:04 PM,62.6,62.6,100,30.10,10.0,SSE,6.9,-,N/A,,Overcast,160,2012-11-27 01:04:00
7:13 PM,62.6,62.6,100,30.10,10.0,South,9.2,-,N/A,,Overcast,170,2012-11-27 01:13:00
7:33 PM,62.6,60.8,94,30.10,10.0,SSE,5.8,-,N/A,,Overcast,160,2012-11-27 01:33:00
7:53 PM,62.1,61.0,96,30.08,10.0,SSE,6.9,-,N/A,,Mostly Cloudy,150,2012-11-27 01:53:00
8:05 PM,62.6,60.8,94,30.09,10.0,SSE,6.9,-,N/A,,Mostly Cloudy,160,2012-11-27 02:05:00
8:12 PM,62.6,60.8,94,30.09,10.0,SSE,5.8,-,N/A,,Mostly Cloudy,160,2012-11-27 02:12:00
8:53 PM,62.1,62.1,100,30.10,9.0,SSE,5.8,-,N/A,,Overcast,160,2012-11-27 02:53:00
9:53 PM,63.0,62.1,97,30.09,8.0,South,8.1,-,N/A,,Overcast,180,2012-11-27 03:53:00
10:53 PM,63.0,62.1,97,30.09,7.0,South,6.9,-,N/A,,Overcast,170,2012-11-27 04:53:00
11:53 PM,63.0,62.1,97,30.08,7.0,South,9.2,-,N/A,,Overcast,170,2012-11-27 05:53:00